SL-12 DEB, 42974

Orbit data source: Space-Track

SL-12 DEB, 42974 is space debris in HEO originally from a launch on Thu, 02 Sep 2010 UTC launched from the Tyuratam Missile And Space Complex (TTMTR). Debris objects in space refer to the collection of defunct objects orbiting the Earth. Examples of debris include non-operational satellites, rocket bodies, and fragments generated from explosions, collisions, or faulty payload assembly.

Loading next visibility...
Identifier
42974, 2010-041P
Orbit
HEO
Country
Flag of CISCIS
Related business
Manufacturer
RKKE
Mission
Spacecraft
Bus & Motor
Unknown
Mass
Unknown
Launch date (UTC)
2010-09-02 (16 years ago)
Launch vehicle
Unknown
Launch site
Tyuratam Missile And Space Complex (TTMTR)
Object type
Payload
Rocket body
Debris
Shape & HBR
Unknown shape, 0.6 m
Radar Cross Section
Medium (>0.1 m² and <1 m²)

Expand to show TLE details & history
Last TLE update: 2 days ago

TLE from 2 days ago
0 SL-12 DEB
1 42974U 10041P   26125.84038330  .00000051  00000-0  16380-3 0  9994
2 42974  64.8852  75.5318 5625435 311.5318  12.2814  4.32647132136103
Epoch: 2026-05-05T20:10Z
TLE epoch observation values (Epoch: 2026-05-05T20:10:09.117Z)
Latitude
0.00007°
Longitude
-90.72857°
Altitude
1,546.297 km
Speed
8.693 km/s
True Right ascension
05h 02m 04s
True Declination
0° 00' 00"
Sunlit
Object was in daylight at epoch
Visualization orbit readout
Latitude
Unknown
Longitude
Unknown
Altitude
Unknown
Speed
Unknown
Apparent Right ascension
Unknown
Apparent Declination
Unknown
Sunlit
N/A
Visualization observer readout
Local Sidereal Time
04:21:02
Azimuth
Unknown
Elevation
Unknown
Doppler factor
Unknown
Orbital elements
Apogee altitude
18,478.8 km
Perigee altitude
580.92 km
Semi-major axis
15,907.997 km
Eccentricity
0.56254
Inclination
64.8852°
RAAN
75.5318°
Arg. of periapsis
311.5318°
True anomaly
48.52512°
Mean anomaly
12.2814°
Eccentric anomaly
26.82771°
Mean motion
1.08173 °/min
Orbital period
332.8 mins
BSTAR
0.0001638
Loading maneuver chart data...
Computing Atmospheric mass density...
Loading historical data...
Loading historical data...
Loading historical data...
Loading historical data...
Loading historical data...
Loading historical data...
Loading historical data...

Documentation

Showing up to 5 results
|